Theta_e
318 321 320 321 319 319 319 321 326 325 322 322 323 327 326 322 319 318 319 315 311 316 320 319 319 318 319 318 313 313 315 312 311 313 314 316 316 316 317 317 317 317 317 318 317 318 318 318 318 318 318 317 318 318 317 317 316 316 316 316 316 316 316 316 317 318 318 318 318 319 319 317 316 317 317 316 316 316 315 315 315 316 317 319 323 326
321 322 321 325 323 319 319 320 321 319 320 322 324 326 323 320 319 316 317 318 312 314 320 319 319 318 317 317 312 310 311 311 311 312 313 315 315 316 316 316 317 317 317 317 317 317 317 318 318 317 318 317 318 318 317 318 317 317 316 316 317 316 316 316 316 316 316 315 315 316 316 316 316 316 316 316 316 316 316 316 315 315 316 317 319 322
322 324 325 323 315 315 317 317 319 322 326 328 326 324 322 319 318 317 318 319 315 314 320 322 320 317 316 315 312 310 310 312 312 312 313 315 314 314 315 316 316 316 316 316 317 317 317 317 317 317 317 317 318 318 317 318 317 317 316 316 316 316 316 316 316 316 315 315 315 316 316 316 317 316 316 317 317 318 318 317 316 316 316 316 317 318
321 325 323 315 310 315 318 316 319 322 324 329 327 322 322 321 319 320 319 318 315 314 318 321 319 317 316 319 318 311 310 313 314 314 314 315 315 315 316 315 316 315 316 316 315 316 316 316 317 317 317 317 317 318 318 317 317 317 317 317 316 316 316 316 316 316 315 316 317 318 318 318 318 318 318 318 317 318 317 317 316 316 316 316 316 316
323 320 314 312 314 319 319 317 321 322 318 323 332 331 325 323 321 320 319 318 316 315 318 319 320 323 324 329 331 318 310 311 311 312 314 315 315 316 317 316 316 316 316 316 316 316 316 316 317 317 317 317 317 317 317 317 318 317 317 317 317 316 316 316 316 316 316 317 318 318 319 320 320 319 318 318 317 316 316 315 315 314 315 315 315 316
322 315 312 315 318 320 320 321 324 325 320 318 328 330 324 326 325 321 323 323 320 318 317 316 318 329 333 330 329 320 313 313 310 308 312 315 316 316 318 317 317 317 317 317 317 317 317 316 317 317 317 317 317 317 317 317 317 318 317 317 317 316 316 316 316 316 317 317 317 318 318 319 318 318 317 316 316 315 315 315 314 315 314 315 315 315
318 313 315 321 322 322 321 321 320 323 323 317 318 321 322 329 327 321 322 320 322 319 314 317 319 322 324 320 318 317 317 320 315 309 311 314 316 315 316 317 317 318 317 318 318 317 317 317 317 317 317 318 317 318 317 318 318 318 318 317 317 317 316 316 316 316 316 316 316 316 317 317 316 316 315 315 315 315 315 315 315 315 314 315 315 315
316 317 319 324 328 325 320 320 318 321 323 318 318 320 324 327 325 325 325 320 323 320 318 327 324 316 318 316 315 315 316 320 319 316 314 312 314 315 315 316 316 317 318 318 318 318 318 318 318 318 317 317 317 318 318 318 318 318 318 318 317 317 316 316 316 316 316 315 316 316 316 316 315 316 315 315 315 315 315 315 315 314 314 314 314 314
314 320 321 326 330 324 321 321 319 322 324 319 318 320 322 325 328 334 333 326 324 318 321 329 319 314 324 322 317 316 315 316 319 321 316 310 314 317 316 317 316 317 318 318 318 318 318 318 317 317 317 318 318 319 319 319 319 318 318 318 317 317 316 316 316 315 315 315 315 315 315 315 315 315 315 315 315 315 315 315 314 314 314 314 314 314
313 316 317 323 326 320 320 319 319 326 323 316 317 320 323 326 329 332 331 326 321 317 325 329 316 313 322 325 320 315 314 318 320 321 314 310 316 318 317 317 317 317 317 317 317 317 317 317 317 317 317 317 318 318 319 319 319 319 318 318 317 317 317 316 316 315 315 315 315 315 315 315 315 315 315 315 315 315 314 314 314 314 314 314 314 314
312 312 313 316 317 316 317 315 315 320 316 313 322 327 325 328 330 333 333 324 315 319 328 326 318 314 315 325 326 316 314 317 317 319 315 312 317 318 318 318 316 317 317 316 317 317 317 317 317 318 318 318 318 317 318 318 317 317 317 317 316 316 316 316 316 315 315 315 315 315 315 315 315 315 315 315 315 315 315 315 315 314 314 314 314 313
314 313 313 313 312 312 316 316 314 315 314 317 330 330 321 325 329 331 330 321 314 323 327 321 317 315 314 323 325 318 317 315 313 317 317 315 317 318 317 318 316 317 317 316 317 316 317 317 317 319 318 318 318 318 318 318 317 317 317 317 317 316 317 316 316 316 316 316 316 316 316 316 316 316 315 316 315 315 315 315 315 314 314 314 314 314
317 318 314 312 313 313 320 323 318 320 323 321 325 324 317 319 322 322 326 322 320 321 319 318 318 315 315 318 317 318 319 314 310 313 315 314 316 318 317 317 316 316 316 316 316 316 317 317 318 318 318 318 318 318 319 318 318 318 317 318 318 317 317 317 317 317 317 317 317 317 317 317 317 316 316 317 316 316 316 315 315 315 315 314 314 314
319 322 316 314 315 313 317 322 319 322 324 319 319 320 319 320 318 320 323 319 319 320 316 315 317 317 320 317 315 317 315 312 311 311 314 315 316 318 316 315 316 314 315 316 316 316 316 317 318 318 318 318 318 318 318 317 317 317 316 317 317 317 318 318 317 318 317 318 318 317 317 317 317 317 317 317 317 316 316 315 315 315 315 315 315 314
319 321 320 317 316 315 316 318 321 323 320 318 319 316 318 324 323 321 322 319 320 321 317 313 316 323 324 315 313 313 311 312 313 312 314 314 316 317 315 315 315 314 316 316 316 316 316 317 317 318 318 318 318 318 317 317 316 316 316 316 316 316 317 317 317 317 318 318 317 317 317 317 317 317 317 317 316 316 316 316 316 315 315 315 315 314
316 319 321 315 313 316 317 314 317 321 319 317 316 314 314 321 323 318 317 320 320 319 317 315 319 326 321 314 313 310 310 311 310 311 312 311 314 316 314 315 314 315 316 315 315 315 315 316 316 317 317 317 317 317 317 317 317 317 316 316 316 316 316 317 317 317 317 318 317 317 317 317 316 316 316 316 316 316 316 316 316 316 316 315 315 314
316 318 318 314 312 314 315 313 311 315 318 316 315 319 318 316 322 320 314 314 315 313 317 316 320 323 316 315 317 313 312 313 310 310 310 310 313 315 314 315 314 315 316 314 315 314 315 315 315 315 316 316 317 317 317 317 316 316 316 316 316 316 317 317 317 317 317 317 317 317 317 316 316 316 316 316 316 316 316 316 316 316 316 316 316 315
320 321 316 314 316 313 311 312 311 310 315 319 319 321 316 312 319 323 317 319 318 315 318 316 316 320 317 317 321 315 313 315 312 310 309 310 313 313 314 314 314 316 315 314 315 314 315 315 314 315 315 316 316 316 316 316 316 317 317 317 317 317 318 318 317 317 317 317 317 316 316 316 316 316 316 316 316 316 316 316 316 316 316 316 316 316
318 318 314 312 316 314 311 314 316 312 311 317 318 316 316 318 321 320 316 319 319 315 320 320 314 314 315 317 319 314 314 317 314 312 312 312 313 313 314 315 315 315 314 315 315 314 315 315 315 315 314 315 316 315 315 316 316 316 317 317 317 318 318 317 317 317 317 317 316 316 316 316 316 316 316 316 316 316 316 316 316 316 316 316 316 316
314 314 314 312 313 314 314 315 319 319 313 313 314 312 317 323 323 320 317 317 318 316 319 319 315 316 317 317 316 313 316 316 313 316 316 312 312 314 314 314 315 315 314 315 315 314 315 315 315 315 315 315 315 315 315 314 315 315 315 316 317 317 318 318 317 317 317 317 317 316 316 316 316 316 316 316 316 316 316 316 316 316 316 316 316 316
313 311 313 313 312 313 317 317 317 319 316 315 317 316 317 318 317 319 318 316 318 320 320 317 314 320 321 317 315 316 317 314 312 317 317 312 312 314 313 314 315 314 315 315 315 315 315 315 315 315 315 315 315 315 315 314 314 315 314 315 315 316 317 317 317 317 317 317 317 316 316 316 316 316 316 316 316 316 316 316 316 316 316 316 316 316
313 312 316 317 315 316 321 319 314 316 317 316 317 317 317 317 317 319 317 315 316 317 320 318 313 317 319 314 314 316 315 312 310 312 314 312 312 313 313 314 314 314 315 315 315 315 315 315 315 315 315 315 315 315 315 314 314 314 315 315 315 315 316 316 317 317 317 317 317 317 316 316 316 316 316 316 316 316 316 316 316 316 315 316 315 315
311 315 321 321 318 319 319 314 308 311 315 315 316 317 317 317 318 319 318 319 318 314 317 318 314 315 314 312 313 314 311 310 310 310 312 311 312 313 313 314 314 315 315 315 315 315 315 315 314 314 314 314 315 315 315 314 314 314 315 315 315 315 315 316 316 316 317 317 317 317 316 316 316 316 316 316 316 316 316 316 316 316 315 315 315 315
311 315 318 318 320 321 320 314 310 312 314 314 316 318 317 318 321 323 323 322 321 318 317 317 315 315 311 308 308 308 308 309 310 311 311 312 313 314 314 314 314 315 315 315 315 315 314 315 314 314 315 314 315 315 315 315 315 315 315 315 315 315 315 315 315 315 316 316 316 316 316 316 316 316 316 317 316 316 316 316 316 316 316 315 315 315
312 317 317 316 318 319 320 319 316 316 316 316 321 320 318 320 321 319 319 316 316 322 321 316 315 315 312 309 307 308 311 310 309 311 312 313 314 314 314 315 314 315 315 315 314 314 315 314 314 315 315 315 315 315 315 315 315 315 315 315 315 315 315 315 315 315 315 315 316 316 316 316 316 316 316 316 317 317 316 316 316 316 316 315 315 314
316 320 317 315 316 315 317 319 318 319 318 318 322 321 316 318 318 317 318 316 316 322 320 316 314 313 312 314 314 315 318 315 311 312 313 313 313 314 314 314 314 314 314 314 314 314 314 314 315 314 314 315 315 315 315 315 315 315 315 315 315 315 315 315 315 315 315 315 315 315 316 316 316 316 316 316 316 316 316 316 316 315 315 315 315 314
320 321 315 314 315 313 316 321 319 318 319 317 319 319 316 316 316 317 320 318 316 318 317 315 315 314 313 315 315 316 318 317 313 312 313 313 313 314 314 314 314 314 314 314 314 314 314 314 314 314 314 315 314 315 315 314 315 315 314 314 314 314 315 315 315 315 314 314 315 315 315 315 315 316 316 316 316 316 316 316 315 315 315 315 314 314
321 319 315 316 316 316 319 322 317 315 317 318 318 318 316 316 316 316 317 317 315 316 316 315 314 314 313 313 314 315 316 316 313 310 312 313 313 314 314 313 313 313 314 314 314 314 314 314 314 314 314 314 314 314 314 314 314 314 314 314 314 314 314 314 314 314 314 314 314 314 315 315 315 315 315 315 315 315 315 315 315 315 315 314 314 314
323 319 316 316 316 318 319 319 317 316 318 320 319 318 317 316 316 315 315 315 316 315 315 315 315 315 313 312 313 314 313 313 312 311 312 313 313 313 313 313 313 314 314 313 313 313 313 313 313 313 313 313 313 314 314 314 314 314 314 314 314 314 314 314 314 314 314 314 314 314 314 314 314 314 314 315 314 315 315 315 315 315 315 315 314 314
320 321 318 316 316 318 318 317 317 317 317 318 319 320 319 319 318 315 314 314 314 316 317 316 315 315 313 312 312 312 312 312 312 312 313 312 311 312 312 313 313 313 313 312 312 312 312 312 313 313 313 313 313 313 313 314 314 314 314 314 314 314 314 314 314 314 314 314 314 314 314 314 314 314 314 314 314 314 314 314 315 315 315 315 314 314
315 320 320 317 317 318 318 317 316 316 316 316 317 319 319 319 317 315 313 313 314 316 316 316 315 314 313 312 312 312 312 312 312 312 312 311 311 312 312 312 312 312 312 311 311 312 312 312 312 312 313 313 313 313 313 313 313 314 314 314 314 314 314 314 314 314 315 314 315 315 314 314 314 314 314 314 314 314 314 314 314 314 314 314 314 313
316 318 318 318 318 318 317 317 316 315 315 315 317 317 316 316 316 314 314 315 316 316 316 315 315 315 313 312 313 312 311 311 312 311 311 311 311 311 311 311 311 311 311 311 311 311 311 312 312 312 312 313 313 313 313 313 313 313 313 314 314 314 314 314 314 314 315 315 315 315 315 314 314 314 314 314 314 314 314 314 313 313 313 313 313 313
317 318 318 317 317 316 316 317 316 315 316 316 316 316 315 314 315 314 314 315 314 314 315 315 314 315 313 312 314 313 311 310 310 310 311 311 310 310 309 309 309 310 310 310 310 310 310 311 311 311 312 312 312 312 312 312 312 312 313 313 313 314 314 314 314 314 314 315 315 315 314 314 314 314 314 314 314 314 314 314 314 313 312 313 313 312
315 316 316 315 315 316 315 316 316 316 316 316 316 316 316 315 315 315 315 314 314 313 314 314 314 315 314 313 313 313 311 310 309 310 310 309 308 308 308 308 308 309 309 309 309 309 309 310 310 310 310 311 311 311 311 312 312 312 313 313 313 313 313 313 314 314 314 314 315 314 314 314 313 313 313 314 314 314 314 313 313 312 312 312 312 312
314 314 314 314 315 315 313 314 316 317 316 316 318 319 316 314 315 316 315 314 314 314 314 314 314 314 313 312 312 311 310 309 309 310 310 308 306 306 306 307 307 308 308 309 309 309 309 309 309 309 309 310 310 310 311 311 311 312 312 312 312 313 313 313 313 313 314 314 314 314 313 313 313 313 313 313 313 313 313 313 312 311 311 311 311 311
313 313 313 315 315 314 313 314 315 316 315 316 318 315 312 313 315 314 315 315 314 314 314 314 313 313 312 311 310 309 308 308 309 310 309 306 304 304 304 305 306 307 308 308 308 308 308 309 309 309 309 309 309 309 310 310 310 311 311 312 312 312 312 312 313 313 313 313 314 313 313 313 313 313 313 312 312 312 312 312 312 311 310 310 310 310
312 313 313 315 315 314 314 314 314 315 315 314 315 313 310 313 316 315 315 315 313 311 311 312 314 312 309 308 308 307 307 308 309 310 308 305 304 303 303 303 304 305 306 307 307 308 308 308 308 309 309 309 309 309 309 310 310 310 310 310 311 311 311 312 312 313 313 313 313 313 313 313 312 313 313 312 311 311 311 311 311 310 309 309 309 309
310 312 313 314 314 313 314 315 314 315 315 312 313 313 310 310 313 313 314 315 311 306 306 310 312 309 306 306 307 306 306 309 312 310 307 304 303 303 303 303 303 303 304 305 306 306 307 308 308 308 309 309 309 309 309 310 310 310 310 310 310 310 311 311 312 312 312 313 313 313 313 313 313 312 312 312 311 311 310 310 309 309 308 308 308 308
310 310 310 312 313 313 314 314 314 315 315 313 314 312 308 308 311 311 313 315 310 303 303 306 306 305 305 305 305 306 309 313 313 308 303 302 302 302 302 303 303 303 303 303 304 305 306 307 307 307 308 308 308 309 309 309 310 310 310 310 310 310 310 311 311 311 312 312 312 313 313 313 312 312 312 311 311 310 310 309 309 308 307 307 306 306
310 310 310 310 312 312 312 313 313 313 314 314 312 309 307 308 309 311 314 314 307 302 303 304 303 304 305 305 304 306 308 310 309 305 301 300 301 301 301 302 302 302 302 302 304 304 305 306 306 307 307 307 308 308 308 309 309 309 309 309 310 310 310 310 311 311 311 311 311 312 312 312 311 311 311 311 310 309 309 309 308 308 307 306 305 305
310 311 311 311 311 311 312 313 312 312 313 313 310 308 308 308 310 313 315 312 305 303 304 304 304 304 305 305 305 305 305 304 304 302 301 300 300 300 301 301 300 301 302 302 303 304 305 305 305 306 306 307 307 307 308 308 308 308 309 309 309 310 309 309 310 310 310 310 310 311 311 310 310 310 310 310 309 309 309 308 308 308 307 306 305 304
312 312 311 311 311 311 311 311 311 311 311 309 308 307 307 309 312 312 311 307 304 304 304 303 304 304 304 303 303 303 302 302 302 301 301 300 300 300 300 301 300 301 301 301 302 303 304 304 304 305 305 305 306 307 307 307 308 308 308 308 309 309 309 309 309 309 310 310 309 310 309 309 309 309 308 308 308 307 307 307 307 307 306 305 304 303
311 312 311 311 311 310 310 310 310 311 309 306 307 308 307 310 312 309 305 303 303 303 303 302 302 303 303 302 302 303 302 301 301 301 301 300 300 300 300 300 300 301 301 301 301 302 302 303 303 304 304 305 306 306 306 307 307 308 308 308 308 309 308 308 308 308 309 309 308 308 308 308 308 308 307 307 306 305 305 305 305 304 304 304 303 302
309 310 310 310 311 309 309 310 309 308 306 305 308 310 309 308 308 305 303 303 302 302 302 302 302 302 303 302 302 303 302 301 301 301 301 300 300 299 299 299 299 300 301 301 302 302 302 302 303 303 304 305 305 306 306 307 307 307 308 308 308 308 308 308 308 307 307 308 307 306 306 306 306 306 305 305 304 304 303 303 303 302 302 302 301 300
308 308 308 310 311 309 308 309 308 305 303 303 305 307 306 305 305 304 303 302 302 302 302 302 302 303 303 303 303 302 301 301 301 301 301 300 300 299 299 298 298 299 299 300 301 302 302 302 302 302 303 304 304 305 306 306 306 307 307 308 308 308 308 308 308 307 307 306 305 304 304 304 304 304 303 303 303 303 302 301 301 300 300 300 300 299
304 303 304 308 311 309 306 305 304 303 302 302 302 303 304 305 305 304 303 301 301 302 303 302 303 303 302 302 302 301 301 301 301 301 300 300 299 299 299 298 298 299 299 300 301 301 301 301 302 302 302 303 303 304 304 305 306 306 307 307 307 307 308 308 308 307 306 306 305 303 302 301 301 301 301 301 301 301 301 300 300 299 299 299 298 298
302 301 303 306 309 310 308 306 304 303 302 301 301 301 302 303 303 303 302 301 301 302 303 302 302 302 301 301 300 300 301 300 300 300 299 298 298 298 298 298 298 298 299 300 300 301 301 301 301 301 302 302 302 303 303 304 305 306 306 307 307 307 307 307 307 306 305 305 304 302 300 300 299 299 299 299 300 299 299 299 299 298 298 298 298 297
303 301 304 307 308 307 306 303 301 301 301 300 300 300 300 300 300 300 300 300 301 302 302 302 301 301 300 300 300 300 300 299 298 297 297 296 297 297 297 297 297 297 297 298 299 300 300 300 300 301 301 302 302 303 303 303 304 305 306 306 306 306 306 306 305 304 304 303 303 302 300 299 298 297 298 298 298 298 298 298 299 298 298 298 297 297
302 302 305 307 305 304 303 300 298 300 301 299 298 299 298 298 299 299 300 300 301 301 301 300 300 299 299 299 299 299 299 298 297 296 295 295 295 295 295 295 295 295 295 296 297 298 298 299 299 300 300 301 302 303 303 303 303 304 305 306 305 305 305 305 304 302 301 301 301 301 300 298 297 296 296 297 297 297 297 297 297 297 297 297 297 297
301 303 305 304 304 304 304 301 299 302 303 299 297 297 298 298 299 300 300 300 300 300 300 299 299 298 298 298 298 297 297 296 296 295 295 294 294 294 294 294 294 294 294 295 295 296 297 298 298 299 299 300 301 302 303 303 303 303 304 304 305 304 304 304 303 301 299 298 299 299 298 298 297 296 295 296 296 296 296 297 296 296 296 296 296 296
300 303 304 304 304 304 303 300 299 302 302 298 296 297 298 298 299 299 299 299 298 298 298 297 297 297 297 296 296 296 295 295 295 294 294 294 294 293 293 293 293 293 293 294 294 294 295 296 297 298 298 299 300 302 302 303 303 303 303 303 303 303 304 303 302 300 298 297 296 297 297 297 296 295 295 295 295 295 295 296 295 295 295 294 294 294
Wind_Speed
4 4 3 4 7 7 7 7 6 5 6 7 6 5 3 3 2 3 3 4 1 3 5 5 5 8 10 10 15 23 20 14 18 22 26 29 30 32 32 32 32 32 33 30 28 27 26 26 25 25 24 23 23 23 25 27 29 29 29 30 29 29 29 30 31 30 30 30 31 32 33 33 34 34 34 34 33 33 33 32 32 32 33 33 34 35
4 4 5 8 9 8 6 6 7 6 5 5 6 5 2 2 2 2 3 4 1 2 4 3 4 9 10 10 15 20 14 14 21 22 26 31 31 33 33 33 34 32 32 31 30 29 27 27 27 27 27 26 26 25 25 26 27 28 30 30 29 29 30 31 31 31 31 31 31 32 32 32 33 33 34 34 33 33 33 33 33 33 33 33 34 35
3 2 8 8 6 5 4 5 7 6 5 5 4 5 2 1 2 3 4 5 3 1 4 5 6 10 11 9 15 19 15 18 24 23 26 29 30 32 34 34 34 33 34 32 31 30 29 28 28 28 28 28 28 26 26 26 26 28 30 30 30 30 31 31 31 31 31 31 31 32 33 33 34 34 34 34 33 33 34 34 33 34 34 34 34 34
2 5 8 6 6 7 6 4 7 6 4 4 4 4 2 2 1 1 4 4 3 2 2 4 6 10 9 6 11 17 17 18 21 20 23 25 27 30 32 33 34 34 33 31 30 28 27 28 28 28 28 27 28 27 28 28 27 28 29 29 29 30 30 30 31 31 31 32 33 34 35 35 36 36 35 35 36 36 36 36 35 35 35 35 35 34
5 6 2 5 5 6 6 4 6 6 1 1 3 5 3 3 3 3 2 2 3 4 3 4 6 7 5 5 7 8 7 11 13 12 15 18 20 23 25 27 28 28 28 26 23 22 22 23 24 24 24 25 26 27 27 27 27 27 26 27 28 29 29 29 30 30 31 32 34 36 37 37 38 38 38 38 38 38 38 37 37 36 36 36 35 35
5 4 2 7 5 5 6 2 3 7 2 3 2 5 6 6 6 2 2 4 4 4 4 5 4 6 5 5 7 6 5 7 8 8 11 12 12 16 20 21 22 22 23 22 20 19 19 19 18 19 20 22 23 24 24 24 25 25 24 25 27 28 29 29 30 30 31 33 34 36 38 39 39 40 40 39 38 38 38 37 37 37 36 36 36 36
3 2 3 6 6 6 6 2 3 5 5 1 4 5 6 7 7 4 2 4 1 3 3 4 4 5 7 5 8 6 7 9 9 8 12 17 18 19 21 21 20 19 19 19 18 17 17 16 16 17 18 19 19 19 20 22 23 24 24 24 25 27 28 29 30 31 32 33 34 36 37 38 39 40 39 38 37 37 38 38 38 38 37 37 37 38
1 3 6 6 6 6 5 2 4 6 7 3 4 6 7 7 7 5 5 3 2 3 4 4 4 2 6 6 6 5 6 9 10 9 14 20 21 19 17 17 17 17 15 14 13 13 13 14 14 15 15 16 16 16 18 20 21 22 23 23 23 25 27 28 30 31 33 34 35 36 37 38 38 39 38 37 37 38 38 39 39 39 38 38 38 39
1 3 3 6 6 3 4 4 4 7 6 4 4 7 6 6 6 5 6 3 1 2 4 5 2 2 6 7 5 5 5 8 10 9 12 16 17 16 11 6 6 8 8 8 8 8 9 10 11 11 11 12 13 15 16 18 19 20 22 22 23 25 26 27 29 30 32 33 34 35 36 37 37 37 37 36 37 37 38 38 38 39 39 39 39 39
1 2 4 7 5 4 4 3 4 5 3 3 5 7 5 6 6 5 5 3 3 2 5 6 2 2 5 7 4 3 3 6 8 8 9 11 13 13 12 11 8 6 5 5 5 4 6 7 8 8 7 8 10 12 14 16 18 20 21 22 23 24 25 26 27 28 29 30 31 32 33 34 33 34 34 35 35 36 36 37 37 38 38 39 39 39
2 0 1 3 3 5 5 2 1 3 5 8 7 7 6 6 5 4 3 4 3 3 6 7 3 2 4 7 4 3 4 5 3 5 7 10 13 13 15 15 11 8 7 5 6 6 7 8 8 6 4 5 7 9 11 13 15 16 18 19 21 22 23 25 26 26 27 27 28 28 28 29 28 29 30 30 31 32 32 33 33 34 35 36 38 38
4 3 1 1 1 5 7 5 4 4 5 7 5 5 4 4 5 4 4 4 1 5 6 5 2 3 4 6 4 5 6 4 3 3 7 9 10 10 12 11 8 7 6 6 6 7 8 9 9 5 3 3 4 5 6 7 9 10 12 14 16 18 19 21 23 24 24 24 24 23 23 24 23 24 25 26 26 27 28 28 28 30 31 32 34 35
2 1 3 3 1 4 6 5 4 5 5 6 5 6 4 2 3 3 3 1 3 6 4 3 2 3 6 8 8 11 10 5 6 5 6 7 5 8 9 8 8 9 9 9 9 9 9 9 9 5 3 3 3 3 4 5 6 8 10 12 15 16 16 18 20 20 21 21 21 20 20 20 20 21 21 21 21 22 23 24 25 26 27 28 30 31
1 5 4 1 1 5 6 6 3 0 1 4 5 5 4 3 2 3 3 2 4 5 3 3 2 3 4 5 8 13 11 5 5 6 6 4 2 5 7 8 11 12 13 13 12 11 9 8 7 5 5 5 5 5 6 6 7 9 12 14 17 17 17 18 19 19 19 19 19 19 18 18 18 18 18 18 18 19 20 21 22 23 24 25 26 27
4 4 4 3 2 6 6 5 7 6 4 4 4 6 5 5 5 4 4 3 4 3 3 3 2 3 2 1 5 10 12 11 6 6 6 3 1 1 4 9 12 12 13 13 14 14 11 9 7 6 8 8 8 9 10 11 12 14 17 19 21 20 19 19 20 19 18 18 18 18 17 17 16 16 16 16 16 17 18 18 19 19 20 21 22 23
3 4 6 2 1 9 8 4 5 7 2 2 3 5 3 5 5 2 3 5 3 1 3 2 3 4 3 5 9 8 10 11 6 4 6 5 4 3 5 10 13 11 12 14 16 17 16 14 11 9 9 11 12 14 16 17 18 20 22 22 23 21 19 19 20 19 18 18 18 18 17 16 15 15 15 14 14 14 15 16 16 16 17 19 20 21
3 4 5 2 1 4 5 3 4 4 3 2 2 3 5 4 7 4 2 1 3 2 4 2 4 5 3 7 9 5 5 8 3 3 5 1 3 3 6 12 13 11 12 15 16 17 17 17 18 17 15 13 13 14 16 18 19 21 21 20 20 20 20 19 20 19 19 19 19 18 17 16 15 15 14 13 12 13 14 15 15 15 16 17 18 19
5 2 4 1 2 3 1 3 2 2 4 5 3 6 3 2 4 4 2 3 3 3 5 2 5 5 2 4 7 6 3 7 4 5 6 7 6 5 9 13 13 11 12 14 16 17 18 19 20 21 20 17 13 13 14 15 17 18 18 19 20 21 21 20 20 20 20 21 20 19 18 17 16 15 15 14 13 14 14 14 15 15 16 16 17 19
5 2 5 1 3 3 3 3 1 3 2 5 4 4 4 2 1 2 2 2 1 2 5 4 4 5 4 5 5 3 4 6 3 5 5 6 8 8 11 14 13 12 13 16 17 17 18 19 21 22 22 19 15 13 13 13 14 16 18 20 21 22 22 22 21 21 22 23 22 21 20 19 18 17 17 16 16 17 16 15 16 16 17 17 18 20
4 3 4 1 1 1 3 2 4 1 2 3 3 3 3 2 4 3 3 3 3 3 3 4 4 4 6 6 7 7 9 6 2 7 5 3 7 9 13 14 13 14 15 17 17 17 18 18 19 21 22 20 16 13 13 13 14 14 16 18 20 23 24 24 23 23 24 24 23 23 21 20 20 19 19 20 20 19 18 18 18 19 19 19 19 20
3 3 4 2 2 1 2 3 6 7 5 3 3 4 2 1 2 2 1 3 4 4 2 3 5 6 5 4 8 9 8 5 6 8 5 2 7 10 13 14 14 15 16 17 18 18 19 17 17 20 22 22 19 16 13 13 14 16 17 18 19 21 24 26 26 25 26 26 25 24 23 22 21 21 22 22 22 21 20 20 21 22 22 22 21 22
2 3 4 2 1 3 5 5 6 9 7 6 6 7 6 5 4 3 3 1 2 3 4 3 5 8 5 4 6 6 5 6 8 9 5 4 8 10 14 15 14 14 15 17 17 18 20 19 19 21 24 24 23 21 17 13 14 16 19 21 21 21 23 26 28 29 28 28 27 27 25 24 24 24 24 25 24 24 23 23 23 24 25 25 24 24
3 4 4 3 4 6 6 5 3 5 3 3 3 5 5 4 5 6 5 3 1 2 2 3 4 7 4 6 6 7 9 9 9 9 7 5 7 12 15 15 15 14 15 16 19 21 23 23 24 27 30 29 27 28 24 17 16 20 24 27 28 27 27 27 28 31 32 32 30 29 28 27 26 27 27 26 26 26 25 25 25 26 27 27 27 27
4 4 4 1 3 4 5 4 2 1 1 2 2 2 4 3 3 5 5 4 3 4 2 3 4 6 1 2 6 8 9 9 8 6 7 10 15 19 20 21 21 20 20 21 22 24 26 28 31 34 34 32 30 31 28 24 26 30 31 32 33 32 31 30 30 30 32 35 35 34 32 31 30 30 30 29 29 28 27 27 27 27 28 28 29 29
6 2 4 3 1 3 4 3 2 3 0 3 3 3 5 5 6 4 2 3 2 6 7 5 7 7 3 2 4 5 3 3 5 8 13 19 21 20 19 18 18 18 20 23 26 29 32 33 34 34 32 31 31 30 29 28 31 34 34 34 34 34 33 32 32 31 30 33 36 38 37 34 32 33 33 33 32 31 29 29 29 29 29 29 30 31
8 3 5 6 5 6 5 5 5 2 1 2 2 5 6 7 8 5 2 4 5 7 7 6 9 8 2 3 5 5 4 4 8 13 17 19 15 12 10 12 15 19 23 27 29 30 32 31 31 30 29 29 29 30 30 31 33 33 34 35 34 34 33 33 33 32 30 30 32 36 38 38 37 36 36 36 36 34 33 32 32 32 31 31 32 32
4 2 6 8 9 9 8 7 6 5 6 5 5 8 8 8 10 7 3 5 8 5 4 7 10 12 10 4 4 3 4 4 7 9 11 11 6 7 13 18 21 22 23 25 26 27 27 27 27 27 27 27 27 28 29 30 31 31 32 31 30 31 31 31 32 32 31 31 31 32 33 35 37 38 38 39 40 39 38 36 35 35 34 34 34 33
4 2 6 6 7 7 6 6 5 6 8 10 9 9 8 8 10 10 8 11 8 4 9 12 8 11 18 11 6 3 5 4 4 2 4 6 8 14 21 22 20 20 22 23 23 24 24 25 25 25 25 25 26 26 26 26 26 26 26 27 26 27 28 29 30 31 31 32 32 32 31 31 32 34 36 38 40 42 43 41 39 37 36 36 36 35
4 3 5 4 4 4 5 6 5 5 5 5 6 7 8 8 10 13 16 15 10 8 11 9 6 9 18 12 4 6 7 8 7 7 10 12 13 17 18 19 21 22 22 22 21 22 22 22 22 21 21 22 22 23 23 24 24 24 25 26 26 26 26 26 28 30 31 32 33 33 32 32 32 33 33 35 36 39 43 45 42 40 39 38 37 36
4 2 2 4 3 3 5 5 5 6 4 3 5 7 8 9 12 14 14 11 7 7 10 7 4 11 16 9 2 6 11 15 16 15 14 11 8 10 13 17 21 20 20 19 18 17 17 17 17 17 18 19 20 21 23 24 25 26 26 27 27 27 27 27 28 30 31 33 34 34 34 34 35 35 35 36 35 35 38 43 44 42 41 40 38 37
2 2 1 4 1 4 6 6 5 6 5 4 5 6 8 11 11 10 7 4 3 6 10 7 8 14 12 7 11 12 9 11 18 17 11 7 5 7 10 12 14 15 15 15 14 14 15 15 16 17 18 20 21 22 24 25 25 26 26 27 27 26 27 27 29 30 31 33 34 35 36 37 37 38 38 37 36 36 36 40 43 44 43 41 40 39
1 1 2 4 1 5 5 5 5 6 5 4 7 10 13 12 9 7 5 6 7 8 9 6 7 13 9 3 10 11 5 7 14 15 9 7 4 5 6 6 8 10 11 13 14 15 16 17 18 20 20 22 23 24 25 25 27 27 27 27 26 25 25 26 28 30 32 33 34 35 36 37 37 38 39 38 37 37 37 38 42 44 44 42 40 39
3 2 1 3 2 6 4 2 4 5 4 6 11 14 15 12 10 8 6 8 11 10 7 6 8 11 7 2 6 10 4 3 6 8 7 4 5 7 10 11 11 12 12 14 15 16 17 18 19 21 22 23 24 25 26 27 28 29 29 28 27 26 25 26 28 31 33 34 35 36 35 35 35 36 37 37 36 37 37 38 40 42 43 42 40 39
5 5 3 3 3 6 3 4 5 3 7 10 7 9 13 15 16 14 13 15 14 9 5 7 8 9 10 9 9 11 9 4 5 3 2 6 10 11 12 14 15 15 15 15 17 18 19 20 21 22 23 25 26 27 28 28 30 32 32 31 31 29 29 29 31 32 33 34 36 36 35 34 34 35 35 35 35 36 37 38 38 38 39 40 40 40
7 7 4 3 3 3 3 5 3 6 9 7 2 5 10 13 15 14 15 16 12 8 7 9 12 14 17 19 16 12 10 8 5 5 5 8 14 15 15 16 16 17 17 17 18 19 20 21 22 23 24 26 27 28 30 31 32 34 35 35 35 34 33 33 34 35 34 34 36 37 36 34 34 34 34 34 35 35 36 37 37 36 37 38 39 39
8 6 3 2 3 2 3 5 7 6 3 4 4 2 2 2 4 5 8 10 9 10 11 11 14 17 18 17 13 10 9 8 3 9 5 10 17 17 17 17 17 18 19 19 19 20 20 21 22 23 24 25 27 28 30 32 33 35 36 37 38 38 37 36 37 37 37 35 35 36 36 35 35 35 34 34 35 36 36 36 37 36 36 37 38 38
7 5 3 3 4 3 4 6 5 4 6 8 7 4 4 5 6 6 5 7 6 9 10 11 14 14 11 8 7 8 7 5 4 10 3 12 18 18 17 17 17 17 18 19 20 20 21 22 23 24 26 27 27 28 30 32 33 34 36 37 37 39 40 40 40 39 38 36 35 35 36 37 37 37 36 35 36 37 37 37 37 36 36 37 37 37
6 5 5 5 4 3 5 6 4 4 8 9 5 4 8 11 11 9 6 5 3 5 7 8 8 6 2 2 6 8 6 3 2 5 3 14 18 18 18 18 18 19 19 19 21 22 22 23 24 25 26 28 29 30 31 32 34 34 35 36 36 38 39 40 40 39 38 37 36 35 36 37 38 38 38 37 36 36 37 37 37 36 35 36 35 35
5 2 2 4 3 3 4 5 5 5 6 5 5 4 6 13 14 10 4 5 4 6 5 5 5 3 2 1 5 8 5 2 4 2 10 18 19 19 20 20 20 21 21 21 22 23 24 24 25 25 27 28 30 30 31 33 35 35 35 35 35 36 36 36 36 36 36 37 36 35 35 36 37 38 38 38 36 36 36 36 36 35 34 34 34 33
5 2 2 4 5 4 5 4 3 4 4 3 3 2 5 11 13 10 3 6 6 8 7 6 5 4 3 2 4 6 4 1 5 9 16 20 20 19 20 22 23 24 24 24 24 25 26 26 27 28 28 28 29 30 31 33 34 35 36 36 35 35 35 34 34 33 34 34 34 33 34 35 36 37 37 37 36 35 36 36 37 36 35 34 33 32
4 3 4 6 7 7 7 5 3 4 5 5 6 9 10 9 6 4 6 6 10 12 9 7 6 4 5 4 1 1 1 4 9 14 18 20 21 21 20 21 23 24 25 26 26 27 28 29 29 30 30 30 30 31 32 33 34 36 37 37 37 36 35 35 34 33 33 33 32 33 34 35 35 35 35 35 35 35 36 36 36 36 35 33 32 31
4 3 3 6 7 6 6 5 4 5 6 6 9 11 10 4 1 4 5 9 16 16 10 8 6 5 5 3 1 3 7 11 14 17 19 20 22 24 23 23 24 24 25 26 27 28 30 32 32 33 33 32 32 33 33 34 35 35 36 37 38 37 37 36 35 34 33 32 32 33 34 34 35 34 34 35 34 35 35 34 34 34 33 32 31 30
6 4 4 5 6 4 4 4 5 6 5 8 11 7 5 5 5 9 13 14 15 14 12 10 6 4 2 2 4 6 10 14 16 19 20 21 23 25 25 26 26 27 28 28 29 30 32 34 35 34 34 34 33 33 34 35 36 36 36 36 37 37 38 38 38 37 35 33 32 32 33 34 34 33 34 34 34 34 34 33 33 32 32 31 30 29
5 5 4 5 5 5 5 6 5 2 3 9 10 5 5 8 10 16 20 16 12 11 12 9 5 3 2 4 7 9 12 15 16 18 20 22 24 26 28 29 29 29 30 30 30 31 32 34 36 36 35 34 33 33 34 35 37 38 37 37 37 37 38 38 39 40 39 35 33 32 33 33 33 33 33 33 33 33 33 32 31 31 30 29 28 27
6 6 4 4 5 4 4 5 4 6 8 9 8 7 11 13 13 16 18 15 10 9 8 5 2 1 0 4 7 11 14 15 16 17 20 24 27 28 30 31 31 31 32 31 31 32 33 35 36 37 37 36 34 34 35 35 36 38 38 37 37 38 38 39 39 41 42 40 36 33 33 33 33 33 32 32 32 32 31 30 29 29 28 27 26 26
4 4 4 2 3 3 2 3 4 8 11 11 10 10 11 11 11 12 11 9 7 5 4 3 1 1 2 5 9 12 14 15 18 21 23 26 29 30 30 31 31 31 32 32 32 33 34 35 36 37 38 38 36 36 36 36 36 38 38 37 36 37 38 38 39 40 41 42 39 35 34 34 33 32 31 30 30 29 29 28 26 25 25 25 25 24
2 5 4 1 3 4 3 3 6 9 10 8 8 10 11 10 9 9 6 3 2 2 2 1 2 3 5 8 11 13 15 16 20 24 26 28 30 30 30 31 31 32 32 32 33 33 34 36 37 38 39 39 39 38 38 38 38 37 37 37 36 36 36 37 38 38 40 40 39 36 34 34 32 31 29 28 28 27 26 25 24 24 24 23 23 22
1 5 4 2 3 4 3 3 7 9 6 5 9 12 11 9 8 7 5 4 4 3 3 3 4 5 7 9 11 14 16 18 20 24 27 28 29 30 30 32 33 33 33 33 33 33 35 36 37 38 39 40 40 40 40 40 40 39 38 37 36 35 36 36 36 36 37 38 38 36 33 32 32 30 28 27 25 24 24 23 23 23 21 20 19 18
2 4 4 3 3 1 1 2 5 3 1 4 12 10 6 5 7 8 8 8 7 6 5 5 6 6 7 9 11 14 17 19 22 24 27 28 29 30 32 33 34 35 35 35 34 34 35 37 37 39 40 41 41 41 41 41 42 41 40 38 37 36 36 36 35 35 35 36 37 35 32 30 30 29 27 25 23 23 22 21 20 19 18 17 16 15
4 3 2 3 3 3 3 6 8 4 2 6 10 6 4 8 10 10 11 10 8 7 7 7 7 7 8 10 12 15 18 21 24 25 28 29 30 31 33 35 36 37 37 36 37 36 36 37 38 39 41 42 42 42 42 42 43 42 41 39 37 35 35 36 35 34 33 34 34 33 30 27 27 26 26 25 23 22 22 21 19 18 17 17 17 17
8 7 6 5 4 4 5 10 12 8 4 7 8 6 8 11 11 11 10 8 6 6 7 8 9 10 11 12 14 17 19 22 25 27 30 32 33 34 35 36 38 39 39 39 39 39 38 38 38 39 40 41 41 42 42 43 43 43 41 39 36 34 34 35 35 34 33 32 32 30 27 24 23 24 25 25 23 23 22 21 20 20 19 19 18 18
Wind_Direction
101 108 145 185 195 192 197 180 155 152 140 137 125 107 141 162 236 255 266 284 150 153 256 244 245 262 263 268 270 273 278 271 260 257 258 260 261 261 261 261 261 260 261 264 265 262 258 256 256 257 259 257 254 252 248 244 242 242 242 242 243 243 242 241 241 241 240 239 238 239 241 243 244 244 244 246 247 249 251 252 251 250 249 248 245 244
82 128 207 218 205 190 188 171 125 103 92 96 117 113 90 147 228 253 254 286 20 154 266 321 307 271 258 262 269 270 270 258 251 247 251 257 259 261 261 261 262 261 263 265 264 263 261 259 258 258 257 254 252 252 250 249 246 244 243 243 243 243 243 242 242 242 242 242 243 246 249 251 250 249 250 251 252 253 254 254 254 253 251 250 246 242
64 193 235 228 197 137 107 136 119 101 91 83 112 121 107 202 252 296 300 310 9 121 273 344 332 281 266 258 263 262 252 254 257 251 252 257 259 261 262 263 264 265 267 267 265 264 264 263 262 260 258 255 253 253 252 252 250 248 246 245 244 243 243 244 244 244 244 246 247 248 251 252 252 253 253 254 255 255 255 256 256 255 254 253 251 247
127 243 246 210 163 111 80 108 115 96 85 88 107 127 194 246 172 277 294 316 359 50 286 334 318 284 285 282 267 263 255 262 268 261 258 259 259 263 265 266 267 268 270 271 270 269 267 266 265 262 260 257 255 252 250 249 249 249 249 248 246 243 243 243 243 245 246 247 247 247 249 250 251 252 252 252 252 252 253 255 256 256 256 255 254 252
199 255 241 123 127 122 101 90 118 125 99 16 128 141 177 206 170 200 281 333 357 11 20 10 330 293 311 331 291 281 267 265 274 272 263 260 261 265 267 266 265 266 270 274 275 275 271 268 266 265 263 260 257 254 252 251 251 253 253 253 250 246 244 242 242 244 246 247 247 246 246 246 247 248 248 248 249 250 250 252 254 255 255 256 255 253
227 271 128 115 89 102 119 124 161 153 152 314 224 173 172 167 157 174 4 40 37 351 340 31 9 291 312 320 281 301 326 294 294 292 278 280 280 271 265 264 264 266 270 274 279 281 278 273 268 263 260 257 256 256 255 255 255 256 257 256 254 251 246 244 243 244 246 247 248 247 246 246 246 247 247 249 251 252 253 254 255 255 256 256 256 255
232 345 81 120 106 92 107 152 209 145 117 281 241 175 152 130 127 141 78 61 83 258 300 58 102 266 302 292 264 294 324 311 312 306 293 292 289 279 271 270 272 275 276 277 281 285 283 278 271 264 258 254 255 257 256 255 255 256 257 257 256 255 252 250 249 248 249 250 251 251 251 251 251 251 253 255 256 256 257 258 258 257 258 257 256 257
179 66 57 79 88 91 113 178 212 130 114 233 234 135 126 121 136 149 106 96 212 242 322 17 113 240 293 265 264 307 323 314 312 303 292 289 294 300 292 279 278 281 284 286 286 285 281 276 273 271 266 258 255 256 255 254 255 256 257 258 258 257 255 254 254 254 253 254 255 255 255 255 255 256 259 259 259 259 259 259 259 260 259 258 258 258
121 142 146 113 88 108 172 213 199 122 101 243 206 126 130 132 134 122 98 98 11 19 314 315 122 196 276 271 297 337 320 302 296 285 286 298 317 336 335 308 297 297 298 301 294 287 288 283 277 275 269 260 255 253 253 253 255 256 257 258 257 255 254 254 254 255 255 256 257 257 257 257 258 260 262 262 261 261 260 260 260 259 259 259 258 258
48 169 187 137 123 175 197 235 201 138 105 179 137 96 78 72 80 78 89 99 39 23 254 257 195 190 268 285 311 341 289 267 273 276 288 320 351 16 40 64 66 40 12 342 324 320 324 315 296 282 271 262 256 252 252 252 252 252 253 254 253 253 253 253 253 254 255 255 255 256 256 258 260 261 262 263 262 261 260 260 260 259 259 259 258 258
330 34 124 105 133 169 148 109 142 137 132 132 100 62 47 31 35 42 57 83 61 297 253 243 224 168 270 281 256 217 226 219 256 311 315 347 20 46 60 66 63 45 29 3 346 341 341 334 314 295 275 258 256 257 257 257 255 254 254 253 253 253 253 253 253 253 253 253 254 255 256 258 260 262 262 262 262 262 261 261 262 262 262 262 261 261
357 57 12 358 109 132 109 69 40 49 96 107 83 72 66 355 9 21 2 42 109 256 262 256 224 150 219 262 251 244 260 232 199 286 314 342 14 46 57 54 44 29 16 358 346 340 341 336 322 306 280 255 253 257 259 262 260 258 257 258 258 257 255 254 253 253 253 253 253 255 256 258 259 261 261 261 262 263 263 264 266 266 264 264 264 263
26 42 299 330 259 158 111 72 33 12 41 78 89 96 89 343 4 355 310 330 221 245 270 274 219 187 227 251 255 257 265 236 194 232 300 334 13 47 44 33 26 20 9 2 359 351 345 339 326 309 284 271 260 245 244 256 266 274 276 274 273 268 262 259 257 256 256 255 254 254 255 257 258 259 259 261 263 264 265 267 267 267 267 266 265 265
272 312 307 34 282 210 149 121 133 268 114 133 137 132 132 132 131 263 269 280 263 259 283 284 258 265 274 268 247 249 262 255 216 252 309 337 46 43 28 27 28 23 15 12 12 8 359 347 330 302 281 275 267 260 262 272 282 292 294 290 288 281 272 266 263 261 260 259 256 253 252 254 254 255 257 259 262 263 266 267 268 269 269 270 270 271
181 280 233 173 200 192 178 172 163 150 157 179 155 136 151 158 162 210 219 214 247 274 295 293 258 213 207 298 250 247 271 281 259 261 287 277 195 80 38 35 29 20 22 30 35 34 27 12 346 304 287 281 278 278 280 286 289 292 297 297 294 289 279 272 267 264 263 261 258 252 248 248 248 250 253 256 259 262 264 266 268 271 271 274 276 276
157 250 247 255 168 167 177 206 149 116 126 224 124 111 172 188 149 138 190 180 180 287 295 260 234 217 204 279 278 260 275 286 279 290 301 271 218 147 63 39 33 31 41 49 48 44 39 31 15 346 318 296 288 287 287 291 293 294 297 295 290 287 280 272 267 264 261 258 255 250 244 241 242 244 247 252 257 259 263 266 269 272 273 276 278 279
137 267 279 347 354 177 164 179 147 132 180 179 139 183 219 176 119 109 237 43 80 247 270 219 248 291 326 296 299 319 295 286 300 9 12 17 186 136 65 41 40 55 61 53 44 40 37 32 22 11 357 334 313 304 299 300 300 299 299 293 283 279 276 271 268 263 257 252 248 243 239 236 236 240 243 249 257 261 264 268 272 275 276 278 280 280
151 237 293 102 195 262 81 117 86 58 131 129 181 212 200 95 83 106 204 353 36 250 274 249 239 280 314 277 309 9 339 293 329 46 66 85 104 99 66 48 50 69 64 41 31 27 23 19 15 11 5 354 339 330 323 315 309 306 301 293 284 278 276 272 267 260 254 250 245 239 236 235 236 241 246 249 254 258 262 267 272 275 277 278 280 279
146 179 300 56 180 283 20 115 109 359 84 134 178 172 119 127 192 111 158 196 174 246 279 288 269 252 209 226 278 321 285 280 352 79 97 84 80 75 61 55 56 58 42 25 20 17 14 10 4 1 0 356 346 340 341 332 322 318 309 301 293 285 281 274 265 256 250 247 244 239 236 236 238 242 246 247 250 253 257 263 268 270 272 274 275 276
144 168 260 288 209 312 29 151 195 242 49 78 105 115 97 138 167 165 158 162 177 209 256 299 315 265 224 207 210 230 249 251 133 125 145 95 73 70 59 56 51 40 27 18 16 14 13 12 2 354 353 351 342 334 339 340 338 338 332 322 310 298 288 278 268 257 249 246 243 241 237 235 237 240 244 246 248 250 254 259 264 267 270 272 272 274
119 166 219 286 316 195 184 206 187 173 161 146 160 172 172 114 115 165 173 124 143 165 205 279 293 266 249 202 184 204 234 224 152 152 174 98 79 71 52 43 34 28 24 21 20 17 14 11 3 354 350 345 335 324 322 327 333 337 338 339 331 315 299 285 273 261 252 249 246 244 240 238 238 240 243 246 248 250 253 257 262 267 270 271 272 274
142 159 171 175 225 202 228 241 197 187 180 163 183 194 183 159 124 145 232 262 125 164 181 194 274 268 237 201 191 185 190 178 151 149 154 105 82 54 32 31 33 33 33 25 16 8 1 357 354 348 340 333 325 318 311 308 318 328 332 335 333 326 316 300 281 265 257 254 251 249 248 245 244 244 245 247 249 250 252 255 261 266 269 271 274 275
127 107 127 172 215 216 244 265 225 216 203 134 184 197 169 154 134 149 206 240 192 224 169 132 279 275 197 177 184 157 147 147 142 136 123 91 49 23 19 26 29 24 17 7 357 353 349 344 338 329 323 318 314 312 311 307 316 326 329 329 326 323 322 316 299 278 265 260 256 253 253 252 251 251 251 251 252 253 254 256 260 263 267 270 272 274
129 108 129 219 303 306 307 325 357 1 119 163 240 168 148 170 151 149 180 180 173 215 168 130 256 268 265 170 155 145 148 141 124 100 58 25 11 9 7 5 2 358 354 350 345 340 333 326 321 317 317 315 310 309 310 313 322 326 325 324 322 318 317 317 312 299 283 271 264 260 258 256 254 255 256 256 256 258 258 259 261 263 266 269 270 272
183 169 130 132 6 338 331 328 319 332 280 199 228 196 171 148 111 109 144 131 209 224 179 177 241 254 309 18 103 111 140 115 64 35 18 8 6 10 9 2 355 348 338 329 324 321 318 317 317 318 319 318 315 316 317 319 323 324 321 320 318 315 313 312 311 309 301 286 275 268 265 262 260 258 259 261 261 261 262 262 263 264 265 267 270 272
178 183 152 156 182 205 209 213 218 219 182 203 217 198 188 160 148 155 148 152 230 231 175 190 241 246 271 67 70 36 24 15 5 5 356 351 3 19 11 348 329 320 316 314 314 315 316 317 319 321 321 319 319 322 322 321 320 318 316 315 315 312 310 309 309 307 306 301 290 279 273 270 269 266 264 266 267 267 267 265 265 266 267 268 269 271
140 194 189 183 201 206 197 210 211 153 151 199 213 192 188 186 179 166 142 191 218 222 202 224 240 253 258 203 120 24 7 340 337 351 340 330 353 351 323 313 307 306 307 310 312 314 316 319 321 322 323 322 321 321 319 318 316 314 313 312 312 309 305 306 308 306 305 305 301 294 287 281 278 277 276 275 274 273 272 270 268 268 268 269 269 271
105 213 204 185 211 214 175 181 186 151 173 199 199 186 185 188 180 175 199 215 203 195 241 239 219 246 260 242 185 235 277 274 275 289 294 293 301 305 304 302 300 302 306 309 312 315 319 322 323 324 323 321 320 317 315 314 314 315 314 313 312 309 306 306 306 305 306 304 301 300 298 294 291 288 287 285 282 279 276 273 271 269 269 270 271 272
120 200 211 163 193 213 167 159 151 144 172 177 165 171 178 179 180 193 214 219 195 197 242 245 180 221 259 263 181 180 237 263 267 270 278 282 286 293 299 299 300 305 311 315 320 324 325 323 321 320 319 319 320 319 319 319 320 319 318 317 317 315 314 311 306 306 307 303 299 299 298 296 294 292 290 289 287 283 279 275 272 270 270 270 271 273
130 192 202 142 159 227 204 187 155 143 138 131 159 173 173 185 196 205 220 221 201 226 261 275 246 245 259 272 224 206 247 274 282 281 284 290 295 296 295 297 303 312 320 325 331 336 335 331 328 328 328 330 331 329 327 325 323 322 320 319 319 318 316 313 310 310 309 306 304 303 299 296 292 290 289 288 288 287 283 278 274 271 270 270 271 273
151 197 139 114 115 257 217 192 167 157 165 201 219 207 197 205 211 214 223 208 182 251 269 278 284 274 265 268 277 262 235 258 278 285 300 337 351 303 290 298 313 323 329 334 341 345 344 341 339 338 337 335 333 330 329 326 323 323 321 319 318 317 313 310 310 311 311 309 308 304 301 298 294 292 290 288 287 287 285 280 276 272 270 270 271 273
120 171 59 90 142 254 226 195 181 151 143 204 241 234 222 216 213 209 203 188 189 225 252 261 269 271 266 248 276 273 180 200 274 299 336 6 8 343 348 358 348 341 345 347 345 344 343 340 337 335 333 331 330 328 328 327 325 323 322 322 322 319 313 309 309 310 311 312 310 303 298 295 293 290 288 288 287 286 286 282 277 273 271 270 272 274
132 133 79 116 193 263 271 182 154 125 135 229 242 235 230 229 227 223 219 215 208 204 222 239 239 257 275 229 256 279 272 242 297 332 356 23 58 44 29 23 10 2 358 351 348 347 344 339 335 333 331 328 326 325 324 324 322 320 319 320 320 319 316 312 311 311 311 312 312 306 298 293 291 288 286 287 288 287 285 282 279 276 272 270 271 274
162 169 194 164 192 250 247 107 105 151 221 241 236 205 211 225 230 232 236 235 226 204 206 252 259 268 279 266 259 280 294 327 33 53 66 59 53 34 18 15 10 4 358 351 347 345 342 339 335 332 330 327 324 322 320 318 315 314 312 313 313 313 314 313 311 311 311 311 312 309 301 296 294 291 289 288 289 287 286 284 281 278 273 269 270 273
170 179 191 171 174 210 150 115 151 218 228 246 265 168 197 218 221 226 241 246 243 230 226 249 259 257 260 265 272 288 306 339 37 123 123 49 27 15 11 7 3 0 358 352 346 342 339 337 334 331 328 326 324 322 319 316 312 309 307 308 309 309 310 310 309 310 312 311 312 311 306 300 296 294 291 290 290 287 286 285 283 279 274 271 271 273
168 172 162 161 176 152 128 171 215 244 277 298 291 240 159 168 174 206 254 260 243 227 223 232 243 250 258 269 285 302 318 346 71 155 139 18 8 8 6 0 357 356 353 351 347 344 340 334 332 330 327 325 324 323 321 317 315 312 308 307 307 307 306 306 305 307 310 310 310 310 308 303 299 296 292 290 289 286 285 285 284 282 278 275 274 274
152 156 155 188 201 184 186 208 233 298 306 283 264 225 164 158 151 161 227 256 239 220 221 227 239 253 264 277 309 323 326 352 133 167 165 359 359 358 356 355 354 349 347 347 343 341 340 335 331 329 327 325 325 324 321 318 316 315 312 310 310 307 304 303 302 303 304 305 305 305 304 302 301 299 294 289 286 285 285 285 285 283 280 277 275 274
156 172 184 199 206 183 199 222 223 235 254 254 233 188 183 184 170 160 192 250 258 216 212 212 223 246 273 313 341 348 344 335 185 178 324 344 348 351 349 347 348 345 345 344 338 335 336 333 330 329 328 326 325 324 322 319 317 316 315 315 314 310 306 303 301 299 297 297 299 299 298 298 300 300 297 291 286 283 284 284 283 282 279 277 275 274
174 175 170 193 205 178 198 221 209 213 243 242 220 226 203 180 162 145 177 247 228 192 173 145 158 180 157 54 7 18 27 308 250 281 339 339 344 350 346 341 342 342 341 340 337 333 332 330 328 328 327 326 324 325 324 321 319 317 316 316 316 316 315 310 303 297 294 293 293 292 291 293 296 298 297 293 288 283 282 281 281 279 277 275 273 272
178 156 157 196 213 207 210 230 231 233 254 233 203 190 147 145 139 136 206 250 198 173 167 145 142 158 158 125 40 46 75 223 276 320 338 338 339 345 345 342 341 340 338 338 337 333 330 330 328 326 326 326 324 324 324 322 320 319 318 316 315 318 319 315 308 303 297 293 290 288 288 290 292 294 294 291 288 284 281 279 278 277 275 274 272 270
187 181 185 203 218 218 218 235 257 251 238 210 173 150 130 109 106 166 225 212 168 167 169 154 141 142 151 146 92 8 287 301 310 326 338 338 336 340 343 340 338 337 337 335 334 333 329 327 325 324 324 326 325 325 324 322 319 319 320 318 317 317 317 316 314 310 304 298 293 290 290 290 291 292 291 289 286 283 280 278 276 275 273 270 268 265
185 190 196 202 214 223 225 231 251 266 251 205 176 165 157 145 237 214 180 146 153 162 157 144 138 134 148 163 265 289 312 327 330 333 338 338 335 335 337 336 333 332 333 331 330 331 328 325 324 323 322 324 326 325 323 321 319 319 319 320 319 317 314 314 315 313 308 303 298 294 292 292 292 291 290 287 285 282 279 277 274 271 268 265 262 259
178 177 193 199 202 205 212 211 223 258 243 166 156 161 177 195 193 162 144 137 144 148 143 139 130 116 147 273 315 317 322 331 334 334 332 330 330 330 330 332 330 328 328 328 327 327 326 324 323 323 322 323 324 323 322 319 318 318 318 319 320 318 315 314 314 312 309 305 301 298 296 294 293 291 289 287 284 280 277 273 270 267 263 260 258 256
182 180 189 203 192 173 193 214 212 215 156 155 164 178 174 170 154 140 140 143 147 151 151 149 142 143 208 301 326 326 325 330 332 329 324 322 324 326 325 326 327 325 324 324 324 325 323 321 320 321 321 322 322 322 321 318 316 316 317 319 320 318 316 315 314 312 311 307 303 300 298 296 294 292 289 286 282 278 274 270 267 264 261 258 255 253
209 196 173 183 188 171 193 218 187 127 116 128 137 128 133 144 144 134 131 131 136 153 158 150 130 117 3 323 320 319 323 326 324 322 322 321 321 323 324 323 323 322 321 321 322 322 321 319 319 319 319 319 320 320 319 316 315 314 315 317 317 316 316 316 315 314 312 309 305 302 299 297 294 292 288 284 280 275 272 269 266 262 259 256 252 250
215 176 124 135 204 226 223 188 156 133 124 120 118 120 129 143 149 141 130 114 105 121 138 126 55 23 352 324 316 315 318 320 319 318 320 321 320 322 324 322 320 320 320 319 320 321 320 318 318 317 317 317 318 318 317 315 313 313 313 314 314 314 314 314 314 314 311 308 306 303 301 298 295 291 287 282 277 273 268 265 262 259 256 252 248 246
259 168 148 137 200 208 208 183 159 148 138 123 122 127 124 123 134 141 141 127 101 122 165 231 312 315 310 311 312 311 312 318 320 318 317 318 319 321 322 322 320 321 321 320 321 321 320 319 318 317 317 315 316 318 317 314 313 311 311 311 310 311 312 311 312 312 310 308 305 302 301 298 294 290 285 279 274 270 264 259 254 250 248 246 243 241
222 166 172 209 206 193 215 207 164 155 158 143 131 125 110 106 127 142 155 181 192 198 223 254 283 302 310 311 309 307 309 315 319 318 316 316 317 318 320 319 319 319 319 320 320 319 318 318 318 317 316 315 316 317 316 314 314 312 309 309 308 309 309 309 310 309 308 306 304 301 299 296 292 287 282 276 270 264 259 254 250 246 243 242 241 240
146 162 182 202 201 191 268 217 151 135 265 155 134 121 98 111 144 161 172 186 199 212 228 250 277 296 304 304 303 303 305 309 314 316 313 312 314 316 317 317 317 317 317 317 319 318 317 317 317 315 315 314 315 315 314 314 313 311 309 308 306 306 307 307 307 306 305 303 301 299 297 295 291 286 279 272 266 259 253 247 243 240 237 233 231 232
152 182 164 139 177 224 237 195 169 167 219 152 135 125 129 143 156 173 179 187 207 226 240 258 273 284 293 298 301 304 306 308 311 311 309 310 312 314 314 314 313 313 313 314 314 314 314 315 315 314 313 312 313 313 312 312 312 312 310 308 305 304 305 306 305 304 303 301 298 297 295 292 288 284 276 269 262 255 247 238 230 225 223 222 221 222
189 200 186 158 183 224 198 169 166 167 159 142 143 154 159 156 164 176 179 190 219 239 262 282 288 292 300 304 305 308 310 309 309 308 307 308 309 310 310 310 310 309 309 310 310 310 310 311 311 311 310 310 309 309 309 310 311 311 311 309 306 304 304 305 304 303 301 300 297 294 291 288 285 280 273 267 260 252 246 237 225 216 212 212 214 216